Regional Weather Roundup
Issued by NWS

Home | Current Version | Previous Version | Graphics & Text | Print | Product List | Glossary On
Versions: 1 2 3 4 5 6 7 8 9 10 11 12 13 14 15 16 17 18 19 20 21 22 23 24 25 26 27 28 29 30 31 32 33 34 35 36 37 38 39 40 41 42 43 44 45 46 47 48 49 50
276
ASUS45 KABQ 180710
RWRNM
NEW MEXICO REGIONAL WEATHER ROUNDUP
NATIONAL WEATHER SERVICE ALBUQUERQUE NM
1200 AM MST SUN FEB 18 2018

NOTE: "FAIR" MEANS FEW OR NO CLOUDS BELOW 12,000 FEET AGL WITH NO
       SIGNIFICANT WEATHER OR OBSTRUCTIONS TO VISION.

      THIS PRODUCT IS RELEASED AS TWO VERSIONS.  ONE VERSION NEAR
      THE TOP OF THE HOUR CONTAINING PRELIMINARY DATA FROM ALBUQUERQUE
      AND OTHER STATIONS.  A FINAL VERSION WITH ADDITIONAL DATA IS
      ISSUED ABOUT 10 MINUTES AFTER THE HOUR.

NMZ501-503-504-510>518-180800-
NORTHWEST PLATEAU/NORTHCENTRAL MOUNTAINS

CITY           SKY/WX    TMP DP  RH WIND       PRES   REMARKS
FARMINGTON     FAIR      28  11  48 NE9       30.06F WCI  19
LOS ALAMOS     FAIR      38  11  32 SW6       30.12F WCI  34
SANTA FE       FAIR      38  24  57 W3        30.11F
TAOS           FAIR      30  21  69 E3        30.14F
ANGEL FIRE     FAIR      28  17  63 SE9       30.12F WCI  20

$$
NMZ402-403-502-505>509-180800-
WESTCENTRAL MOUNTAINS/SOUTHWEST MOUNTAINS

CITY           SKY/WX    TMP DP  RH WIND       PRES   REMARKS
GALLUP         FAIR      27  23  85 E3        30.11F
GRANTS         FAIR      32  22  67 S13       30.13F WCI  22
SILVER CITY    CLOUDY    39  38  96 CALM      30.15S

$$
NMZ407-409-411-412-180800-
SOUTHERN DESERTS

CITY           SKY/WX    TMP DP  RH WIND       PRES   REMARKS
DEMING         FAIR      47  45  93 CALM      30.12S
LAS CRUCES     FAIR      48  47  93 E3        30.13F
ALAMOGORDO     FAIR      39  37  93 S6        30.14S WCI  35
T OR C         FAIR      46  43  89 W5        30.12F

$$
NMZ519>523-180800-
CENTRAL VALLEYS/CENTRAL HIGHLANDS

CITY           SKY/WX    TMP DP  RH WIND       PRES   REMARKS
ALBUQUERQUE    FAIR      42  29  59 SE6       30.10F
MORIARTY ARPT  FAIR      27  25  91 CALM      30.13F
CLINES CORNERS FAIR      32  24  72 W10       30.12F WCI  24
BELEN          FAIR      39  34  81 S3        30.10F
SOCORRO        FAIR      41  36  81 S6        30.11F

$$
NMZ524>526-539-540-180800-
SOUTHCENTRAL MOUNTAINS

CITY           SKY/WX    TMP DP  RH WIND       PRES   REMARKS
RUIDOSO        NOT AVBL

$$
NMZ527>531-180800-
NORTHEAST HIGHLANDS/NORTHEAST PLAINS

CITY           SKY/WX    TMP DP  RH WIND       PRES   REMARKS
LAS VEGAS      FAIR      36  17  46 S18       30.05F WCI  26
RATON          FAIR      34  21  59 S5        30.00F WCI  30
CLAYTON        FAIR      39  25  57 SW21G30   29.98F WCI  29

$$
NMZ532>537-180800-
EASTCENTRAL PLAINS

CITY           SKY/WX    TMP DP  RH WIND       PRES   REMARKS
SANTA ROSA     FAIR      33  29  86 SE6       30.08F WCI  27
TUCUMCARI      FAIR      43  26  51 SW10      30.05F
CANNON AFB     FAIR      34  34 100 S7        30.12F WCI  28
CLOVIS AIRPORT NOT AVBL

$$
NMZ028-029-538-180800-
SOUTHEAST PLAINS

CITY           SKY/WX    TMP DP  RH WIND       PRES   REMARKS
ROSWELL        FAIR      45  38  76 S3        30.11F
ARTESIA        FAIR      45  36  70 SE9       30.13S
CARLSBAD       FAIR      47  38  71 S6        30.12F
HOBBS          FAIR      39  25  56 SE5       30.14F


$$




USA.gov is the U.S. government's official web portal to all federal, state and local government web resources and services.